Theta_e
320 320 321 322 322 322 322 322 321 321 321 322 321 321 321 321 320 320 320 320 320 320 321 321 320 320 311 299 297 304 320 316 307 304 300 299 295 294 292 293 293 291 293 294 293 291 291
319 320 320 322 322 321 321 321 320 320 321 321 321 321 320 320 320 319 319 319 319 320 321 320 320 319 304 294 301 304 302 302 302 300 298 299 296 296 292 292 291 293 293 292 291 292 292
319 319 320 321 321 321 321 320 320 320 320 320 321 320 319 319 319 319 319 319 319 319 319 318 319 311 302 297 300 301 301 300 300 301 299 300 299 295 294 291 294 293 289 290 290 292 292
319 319 319 321 320 320 320 320 319 319 320 320 319 319 319 318 318 318 318 318 318 318 317 316 318 307 295 301 301 302 301 300 300 301 302 301 301 298 295 293 293 289 289 285 290 293 292
318 318 318 320 320 319 319 319 319 319 318 318 318 318 318 318 317 317 317 316 317 317 316 317 305 301 296 307 300 300 302 300 299 301 301 303 302 296 294 290 287 288 282 285 288 293 291
317 317 318 319 318 318 318 318 318 317 317 317 317 317 317 317 317 317 315 315 317 313 310 308 302 295 297 296 300 301 301 301 298 300 300 299 295 290 289 287 279 283 283 285 285 289 289
317 317 317 318 317 317 317 317 317 316 316 316 316 316 316 316 317 315 309 304 301 298 297 294 294 295 297 299 302 300 302 300 299 297 290 294 289 285 287 288 287 286 284 283 285 288 286
316 316 317 317 316 316 316 316 316 315 315 315 315 316 316 314 315 314 303 299 298 300 293 297 296 297 299 300 296 298 301 295 294 289 292 290 286 289 291 290 288 285 282 282 285 288 286
316 316 316 316 315 315 315 314 314 314 314 314 314 315 316 314 312 304 301 299 302 301 293 296 297 297 296 298 295 295 298 296 292 289 289 286 287 290 289 286 285 284 282 283 282 285 285
315 315 314 314 314 313 313 313 313 313 313 313 313 315 315 312 304 300 298 301 303 302 287 291 293 296 298 298 293 298 299 295 292 289 289 287 288 287 285 285 285 281 286 285 284 279 276
314 313 313 312 312 312 312 312 312 312 313 313 313 314 314 311 301 297 300 303 303 299 277 293 293 300 298 294 295 295 298 295 289 289 289 285 285 284 285 285 286 283 287 285 284 278 275
312 312 311 311 311 311 311 311 311 312 312 313 313 314 313 306 301 300 303 304 301 286 276 289 293 292 292 293 293 295 295 295 293 289 287 284 288 286 285 287 287 288 285 283 281 278 268
311 310 310 310 310 310 310 310 311 311 311 311 312 314 308 304 299 303 305 298 285 279 288 286 288 290 288 289 290 291 290 286 284 281 281 284 283 285 287 284 287 285 279 271 270 269 272
310 310 310 310 309 309 309 309 310 310 310 311 313 311 307 302 303 305 301 290 279 285 285 289 288 287 285 287 286 287 286 284 285 284 279 280 278 282 285 284 282 281 278 272 267 272 276
309 309 309 309 309 309 308 308 309 309 309 311 311 304 304 302 303 304 294 282 281 283 287 286 286 282 282 286 285 284 282 282 283 284 281 278 280 283 284 285 284 281 278 281 272 270 270
308 308 308 308 308 308 308 308 308 308 309 312 304 302 302 303 302 299 290 286 284 287 287 286 282 282 280 283 282 282 282 283 284 286 285 281 277 281 283 285 284 282 282 277 274 266 268
308 308 308 308 307 307 307 307 307 307 309 311 301 296 302 302 299 292 283 284 285 287 288 285 283 282 282 282 282 281 281 284 286 286 286 281 277 278 281 279 278 279 276 279 279 276 270
307 307 307 307 307 306 306 306 306 307 310 304 298 289 301 301 289 286 284 284 291 286 289 286 286 283 282 281 280 281 282 284 287 286 283 281 278 275 278 277 279 279 279 278 275 271 270
307 307 307 307 306 306 306 305 306 307 309 300 294 293 302 299 285 283 285 287 288 287 285 286 284 286 285 282 280 282 283 287 287 286 283 281 278 272 277 278 278 274 277 278 272 272 269
306 307 307 307 307 307 306 305 306 307 309 302 295 289 294 294 292 286 285 286 286 291 288 289 285 287 284 282 283 281 283 286 287 287 293 288 280 276 273 275 276 271 278 275 271 266 267
307 307 307 306 306 306 305 305 306 307 308 300 294 289 291 285 288 287 287 286 287 286 289 289 285 286 284 281 282 282 284 285 287 291 285 282 273 277 278 279 278 273 269 272 268 268 271
306 306 306 306 305 305 305 305 305 304 308 298 292 291 291 288 289 287 287 285 285 285 286 285 284 284 283 281 281 282 283 281 280 283 282 280 271 270 267 276 269 267 273 270 268 264 268
306 306 306 305 305 304 304 305 305 302 304 295 294 295 290 286 285 282 283 284 284 285 286 286 284 279 278 281 280 279 279 279 279 280 279 273 271 264 265 273 269 264 264 265 266 262 270
305 305 305 304 304 303 303 303 304 304 297 292 289 292 285 281 281 281 284 283 282 281 283 283 282 278 281 282 281 280 279 280 278 276 280 272 269 266 263 266 259 269 267 266 268 263 261
304 304 304 304 303 302 302 302 302 303 298 289 287 290 285 279 280 280 281 280 280 279 280 281 282 281 282 280 275 273 273 274 276 277 275 277 273 265 262 262 270 273 274 270 268 269 269
303 303 303 303 302 301 301 301 301 301 300 289 287 287 287 283 279 281 280 279 277 275 276 280 281 282 281 278 275 265 267 271 271 272 278 277 274 267 263 263 261 270 276 278 272 265 274
303 303 302 302 301 301 301 300 300 300 300 289 287 287 286 280 282 281 278 278 280 277 276 275 276 277 278 274 272 270 269 272 268 269 269 273 267 268 267 260 268 274 276 276 266 267 275
302 302 302 301 301 300 300 299 299 299 299 290 286 288 286 280 281 282 282 278 278 277 274 275 274 274 272 270 272 269 265 268 267 270 267 266 267 266 269 267 263 277 276 271 273 276 276
301 301 301 301 300 299 299 299 299 298 297 292 284 288 288 282 281 283 282 281 281 280 277 275 274 273 275 272 268 268 270 262 262 263 270 266 270 268 270 270 273 274 273 275 276 275 275
Wind_Speed
9 10 11 11 11 11 11 10 11 11 11 11 11 11 9 9 8 6 6 6 6 6 5 4 3 3 2 1 4 3 3 2 2 2 2 3 3 2 2 3 2 3 3 3 2 1 1
8 9 10 11 11 11 11 11 11 10 10 12 11 11 11 9 10 7 6 4 5 5 5 4 4 2 1 2 2 4 4 3 2 1 2 3 4 3 1 3 3 3 3 2 2 1 1
9 9 11 11 12 12 12 11 11 11 11 10 12 11 11 9 9 8 7 6 6 5 4 3 2 1 1 4 1 3 4 2 1 2 2 1 2 3 2 2 2 3 2 1 3 3 1
8 10 10 12 12 12 12 12 12 11 12 12 11 11 10 10 10 9 7 7 5 4 3 3 2 1 4 1 0 2 1 2 1 1 1 0 1 3 2 2 4 2 4 2 1 5 1
8 9 10 11 12 12 12 12 12 12 12 13 12 12 10 9 10 9 9 6 4 3 2 3 1 2 3 2 2 1 1 2 2 1 2 1 1 3 4 5 4 5 2 3 3 6 3
7 8 10 11 12 12 12 13 13 12 12 13 13 12 11 9 9 8 7 2 4 3 0 2 2 1 0 2 1 0 1 2 2 2 3 2 5 4 3 4 5 5 3 3 3 3 3
7 9 10 11 11 12 12 13 14 12 12 12 14 12 11 8 8 6 0 2 3 1 1 3 2 2 3 1 1 2 2 2 2 3 4 0 4 6 8 6 3 1 2 3 2 2 2
7 9 10 10 11 11 12 13 13 13 13 12 14 13 10 9 7 3 1 3 2 1 1 1 2 3 2 2 3 1 1 3 3 4 3 5 5 4 3 3 4 3 3 4 0 1 2
7 9 10 11 12 13 13 12 12 14 14 12 13 12 10 8 3 0 2 1 1 1 3 0 1 3 2 2 1 5 2 3 3 4 5 6 2 1 3 2 3 1 4 3 4 2 1
8 9 10 11 12 12 14 15 15 13 13 12 12 12 9 8 1 1 0 1 1 0 4 2 2 0 2 2 1 1 1 2 1 7 5 2 1 3 2 2 3 3 3 2 3 5 4
8 9 10 11 11 12 13 14 15 14 13 11 11 11 8 3 1 2 2 0 1 3 3 3 3 1 2 4 4 2 1 1 3 3 6 4 1 2 2 2 1 3 2 3 4 5 4
7 9 9 10 12 13 14 14 13 14 13 12 11 10 8 3 1 1 1 2 3 6 7 3 3 4 3 1 1 1 2 3 2 3 5 2 2 3 2 2 2 4 5 8 6 4 3
8 9 10 11 12 14 14 15 15 15 13 13 11 8 2 1 2 1 2 3 5 5 1 3 3 3 3 3 1 3 3 3 4 4 3 2 2 2 3 2 4 5 6 3 6 4 7
9 10 12 12 12 13 15 15 16 15 14 12 10 4 3 2 1 3 3 4 3 3 3 1 2 2 3 4 2 3 4 3 4 3 3 5 4 1 5 2 6 3 6 8 7 4 3
10 11 12 13 13 14 15 15 15 14 12 10 6 1 2 1 3 3 5 3 7 4 3 5 2 3 3 2 4 3 2 4 0 2 7 5 1 1 3 2 3 3 2 3 7 3 4
9 12 13 14 15 16 17 17 17 14 10 7 1 2 1 1 3 3 4 5 4 0 1 1 7 2 6 4 4 4 5 2 2 1 2 3 3 1 0 1 3 4 1 3 3 1 4
12 12 13 14 17 18 18 17 14 10 6 3 2 2 1 3 3 5 4 4 2 0 1 1 3 3 2 4 5 3 3 1 0 2 3 3 4 1 1 2 6 1 2 3 3 4 5
13 13 14 17 18 17 15 14 16 10 3 3 3 1 1 2 4 1 4 3 1 2 4 1 3 2 3 2 2 2 3 1 3 1 3 1 5 3 2 2 1 1 3 3 5 5 1
14 16 17 17 15 21 26 22 17 7 4 3 3 2 1 2 4 1 1 3 2 1 2 2 2 1 1 3 4 3 3 0 1 2 5 5 1 3 5 3 1 1 1 3 3 3 6
15 16 21 23 24 26 24 22 19 7 3 1 3 2 3 4 2 6 5 3 3 2 2 3 2 3 2 2 3 4 3 1 2 2 5 2 2 7 8 5 5 2 4 3 5 4 3
18 24 26 25 25 24 24 24 22 8 4 2 3 2 1 1 2 3 3 4 3 2 2 2 3 2 3 3 2 3 3 2 3 3 3 4 3 1 3 2 2 4 5 6 8 6 7
20 21 20 20 21 23 25 24 21 17 4 4 4 4 3 2 1 3 4 1 4 2 2 1 4 2 2 3 2 6 4 3 2 1 3 3 1 3 6 4 4 4 10 6 3 1 7
19 20 21 23 23 24 26 25 25 24 5 3 1 2 5 4 2 4 1 2 3 5 2 3 3 3 3 4 3 2 4 4 3 5 3 3 4 4 6 5 6 7 9 7 4 3 8
20 21 22 23 22 23 25 27 27 24 13 3 1 2 5 0 3 2 3 2 3 2 5 2 3 3 2 1 3 4 4 4 4 0 3 5 5 3 3 4 2 9 4 5 7 4 3
20 21 22 23 25 25 26 25 25 25 17 5 2 2 4 4 2 3 5 5 4 4 3 3 3 1 1 3 3 3 3 2 4 5 3 2 5 2 4 3 8 2 2 3 6 7 3
20 21 22 23 23 23 23 25 26 24 16 4 3 2 3 8 3 1 3 3 4 2 3 1 1 1 3 3 4 4 4 3 2 1 4 5 4 6 3 4 7 5 1 3 4 5 3
20 21 22 22 23 23 24 25 25 25 20 4 3 4 3 6 1 2 3 4 5 3 3 1 1 2 3 2 2 3 4 3 4 7 6 3 2 6 4 3 9 4 3 2 5 7 1
19 20 21 22 23 22 22 23 24 25 22 4 0 5 3 4 2 4 4 2 2 2 5 4 5 3 3 3 4 3 3 4 2 5 7 8 8 5 4 4 10 3 3 5 3 3 5
19 19 19 20 21 22 22 23 22 25 22 6 4 4 4 7 3 1 2 1 2 1 5 0 4 3 4 5 0 3 2 2 3 4 2 1 8 7 9 7 3 5 9 3 4 4 2
Wind_Direction
352 351 351 352 352 354 351 357 355 353 347 347 343 339 333 324 310 315 302 295 289 274 269 277 295 290 201 155 250 170 173 196 152 164 202 136 126 161 178 198 141 167 186 116 134 164 117
350 349 346 349 348 350 350 348 352 349 349 341 344 343 334 327 312 314 298 287 274 272 257 250 255 265 139 236 147 158 150 153 196 177 229 158 173 171 195 177 176 170 155 153 173 210 47
345 350 346 348 347 346 347 346 347 344 343 346 339 341 334 326 315 307 305 300 290 280 273 284 263 18 147 223 113 161 174 181 145 178 197 86 163 141 125 112 183 122 100 6 196 185 241
348 345 345 347 345 345 343 343 342 345 341 341 340 338 334 326 316 310 308 289 267 255 246 214 184 190 231 250 216 116 127 34 325 185 118 130 108 112 99 136 32 64 54 13 308 135 121
345 344 342 345 343 342 342 341 338 339 342 337 339 335 333 330 314 312 308 294 245 198 198 161 159 174 250 319 125 179 145 193 133 58 32 92 95 103 65 94 16 4 217 202 306 197 122
336 337 339 342 340 341 341 340 334 334 341 338 336 334 334 328 314 313 301 221 146 129 190 218 258 58 37 209 123 313 5 135 139 100 48 74 52 76 48 97 215 204 213 229 220 209 181
332 333 335 337 337 338 341 338 332 330 339 340 333 334 331 327 317 305 336 81 55 359 231 186 179 132 135 38 52 29 357 111 106 59 152 272 99 201 216 196 174 134 199 231 296 134 206
326 328 331 333 334 335 338 335 332 326 337 342 332 330 329 327 319 269 148 210 197 158 144 331 126 81 85 195 98 352 7 147 150 185 130 40 225 214 188 171 194 197 185 259 63 157 172
329 331 331 334 336 336 334 330 325 335 334 335 329 327 328 329 314 91 183 182 295 248 124 57 183 149 187 139 179 190 151 173 169 166 179 161 188 152 176 164 159 84 178 190 191 1 318
338 336 336 340 340 338 334 332 333 331 322 330 325 326 330 334 18 202 235 173 291 347 68 215 203 179 128 149 235 243 341 184 205 195 159 195 332 175 167 160 128 220 187 155 117 82 220
343 341 341 342 340 337 332 328 327 323 322 322 318 325 331 314 234 141 151 259 14 57 3 167 175 136 143 163 147 23 311 57 183 168 101 242 161 142 160 124 347 197 103 100 87 90 46
344 345 342 344 340 338 334 329 323 319 332 320 321 324 327 142 92 138 98 55 58 52 257 149 137 177 129 151 126 105 71 55 56 95 47 90 53 46 81 83 57 135 70 41 53 76 32
352 348 345 348 346 340 335 330 328 327 329 320 321 309 324 117 176 152 93 64 50 149 95 186 188 162 176 160 171 156 143 39 151 120 216 45 16 15 36 95 24 74 67 353 356 9 219
357 354 348 348 348 343 335 330 328 331 329 322 310 299 18 101 133 109 72 61 202 200 193 84 137 97 185 159 180 152 114 140 43 88 110 158 302 60 348 48 176 157 143 156 203 203 255
360 1 354 349 350 345 336 331 330 327 326 314 300 344 50 287 115 84 83 97 214 199 156 155 92 164 211 188 170 121 72 159 149 52 164 143 231 0 48 14 81 192 184 158 101 50 60
358 3 2 353 352 348 340 336 333 324 319 297 158 93 264 108 119 80 87 230 192 92 62 145 185 182 185 182 158 162 180 239 167 162 164 182 106 0 57 114 41 129 207 74 0 153 260
18 7 7 357 3 350 338 331 314 317 314 216 83 88 221 124 83 59 172 204 146 248 206 155 190 146 151 173 177 168 157 9 132 123 88 120 95 257 64 180 180 55 331 35 118 138 181
18 12 10 10 358 344 339 342 351 346 316 120 112 105 293 123 68 37 150 148 114 163 19 101 95 91 147 135 95 109 157 102 164 176 129 87 138 182 213 249 126 240 190 144 128 263 89
22 17 15 9 2 359 3 356 344 327 236 129 136 152 351 123 160 146 185 73 75 107 40 64 107 42 142 133 115 126 111 334 133 104 164 202 6 37 337 3 93 172 188 128 103 74 212
28 23 22 15 10 6 2 358 352 338 217 133 99 120 344 50 33 134 149 150 115 30 83 71 110 67 100 98 52 145 124 181 93 95 112 109 145 169 193 197 129 146 184 188 126 126 203
30 27 22 15 10 2 3 5 5 357 186 99 30 196 207 150 357 105 95 131 132 124 33 43 50 78 150 130 100 134 125 108 47 107 70 98 181 263 295 271 179 194 183 187 191 202 184
32 30 22 16 10 9 9 6 11 13 148 79 132 130 27 75 38 73 21 65 139 139 91 230 146 137 105 137 158 187 136 166 174 104 87 30 227 77 312 355 127 221 232 208 225 255 295
32 27 23 20 15 13 10 9 14 16 23 94 345 45 103 332 44 81 176 137 152 123 13 44 128 112 130 139 101 85 77 87 92 151 124 96 116 72 264 338 334 339 226 186 187 208 163
31 28 24 20 17 16 15 15 17 17 31 97 87 97 88 98 86 146 133 100 124 89 148 93 55 120 119 56 107 88 74 79 97 227 120 126 97 105 242 10 343 244 183 169 186 235 246
32 28 23 20 19 16 15 14 18 21 26 68 21 83 114 105 125 75 110 113 101 40 69 98 39 75 20 48 68 58 354 63 39 35 190 142 114 97 133 204 299 298 172 153 136 277 212
33 28 24 22 19 16 15 15 17 16 25 82 58 302 98 120 227 89 139 160 153 130 19 81 15 359 75 85 80 151 219 225 189 88 44 71 78 117 93 152 232 231 70 127 122 299 354
30 26 24 22 19 16 16 15 15 14 16 77 50 5 78 104 5 35 153 172 133 100 122 322 245 78 42 92 111 167 251 170 191 178 177 150 12 179 202 229 285 248 234 178 100 238 349
26 23 20 21 19 15 15 14 14 13 11 49 51 360 78 95 28 19 4 132 75 113 147 210 54 325 44 89 135 217 148 232 80 167 177 165 153 194 165 199 271 17 72 174 195 53 78
24 20 17 15 18 16 13 13 15 14 13 29 51 351 355 72 115 50 93 78 359 47 130 112 177 165 183 89 63 103 189 74 145 248 87 290 185 181 177 210 64 4 102 55 49 108 53